[[{"header":{"parameterUnit":"m.s-1","parameterCategory":1,"la1":30.2991,"la2":30.254,"lo1":-89.0895,"lo2":-89.0444,"dy":0.0017,"dx":0.0017,"nx":28,"ny":28,"refTime":"2024-10-10T09:00:00:Z","depth":0,"parameterNumber":2,"parameterNumberName":"U-component_of_WINDS"},"data":[0,0,0,0,0,0,0,0,0,0,0,0,0,0,0,0,0,0,0,0,0,0,0,0,0,0,0,0,0,0,0,0,0,0,0,0,0,0,0,0,0,0,0,0,0,0,0,0,0,0,0,0,0,0,0,0,0,0,-3.4336,-3.4336,0,-3.4358,-3.4359,-3.4359,-3.426,-3.4257,-3.4255,-3.4252,-3.4279,-3.4282,-3.4285,0,0,0,0,0,0,0,0,0,0,0,0,0,-3.4211,-3.4214,-3.4336,-3.4336,-3.4336,-3.4358,-3.4359,-3.4359,-3.4261,-3.4257,-3.4254,-3.4251,-3.4278,-3.4282,-3.4286,0,0,0,0,0,0,0,0,0,0,0,0,0,-3.4253,-3.4215,-3.4335,-3.429,-3.4286,-3.4358,-3.4359,-3.4359,-3.4262,-3.4257,-3.4253,-3.4249,-3.4276,-3.4281,-3.4286,-3.4405,0,0,-3.4302,-3.4304,0,0,0,0,0,0,0,0,-3.425,-3.4257,-3.4296,-3.4293,-3.4289,-3.4302,-3.4325,-3.4375,-3.4263,-3.4271,-3.4252,-3.4247,-3.429,-3.4294,-3.4308,-3.4406,-3.4407,-3.4302,-3.4306,-3.4308,-3.4309,0,0,0,0,0,0,0,-3.4248,-3.4256,-3.4345,-3.4297,-3.4292,-3.4269,-3.4271,-3.4334,-3.4305,-3.427,-3.4263,-3.4267,-3.4287,-3.4303,-3.4308,-3.4408,-3.4302,-3.4307,-3.431,-3.4312,-3.4608,-3.4613,0,0,0,0,0,0,-3.425,-3.4254,-3.4344,-3.4345,-3.4258,-3.4275,-3.4276,-3.4302,-3.4304,-3.43,-3.427,-3.4262,-3.4297,-3.4302,-3.4308,-3.445,-3.4308,-3.4313,-3.4316,-3.4603,-3.4609,-3.4614,0,0,0,0,0,0,-3.4248,-3.4259,-3.4343,-3.4298,-3.4307,-3.4282,-3.4312,-3.4305,-3.4321,-3.4304,-3.4299,-3.4292,-3.4293,-3.4301,-3.4382,-3.4449,-3.4315,-3.432,-3.4598,-3.4605,-3.4612,-3.4732,0,0,0,0,0,0,-3.4245,-3.4259,-3.4303,-3.4299,-3.4309,-3.4416,-3.4316,-3.4309,-3.4329,-3.4319,-3.4323,-3.4319,-3.4291,-3.4375,-3.4387,-3.4454,-3.4324,-3.4592,-3.4601,-3.4609,-3.4722,-3.4743,-3.476,0,0,0,0,0,-3.4241,-3.4336,-3.4305,-3.4317,-3.4363,-3.4419,-3.4425,-3.4389,-3.4335,-3.438,-3.437,-3.4319,-3.444,-3.4384,-3.4397,-3.4466,-3.4587,-3.4598,-3.4609,-3.4714,-3.4739,-3.476,0,0,0,0,0,0,-3.4348,-3.4335,-3.4301,-3.4397,-3.441,-3.4403,-3.4458,-3.4417,-3.4446,-3.4435,-3.439,-3.4392,-3.4482,-3.4481,-3.442,-3.4583,-3.4504,-3.4518,-3.458,-3.4603,-3.4622,-3.4621,-3.4328,0,0,0,0,0,-3.4383,-3.4428,-3.4414,-3.4501,-3.4509,-3.4483,-3.4506,-3.4477,-3.4489,-3.4494,-3.449,-3.4505,-3.4546,-3.4574,-3.4611,-3.4721,-3.4722,-3.4775,-3.4794,-3.481,-3.4823,-3.4884,-3.4909,-3.465,-3.4649,-3.4649,0,0,-3.4456,-3.4454,-3.4485,-3.4523,-3.4529,-3.4579,-3.4488,-3.4544,-3.4581,-3.4503,-3.458,-3.4577,-3.4591,-3.4688,-3.473,-3.4691,-3.4895,-3.4824,-3.4836,-3.4841,-3.4898,-3.4923,-3.4944,-3.4657,-3.4656,-3.4654,0,0,-3.4614,-3.4616,-3.469,-3.4699,-3.471,-3.4692,-3.471,-3.4709,-3.4704,-3.478,-3.4723,-3.4767,-3.4839,-3.4852,-3.4868,-3.5033,-3.4989,-3.5046,-3.5146,-3.5206,-3.5227,-3.5245,-3.5307,-3.5329,-3.5059,-3.5059,-3.506,0,-3.4703,-3.4775,-3.4733,-3.4794,-3.4813,-3.4744,-3.482,-3.483,-3.4854,-3.487,-3.4824,-3.4914,-3.4918,-3.5019,-3.5059,-3.5073,-3.5095,-3.5046,-3.5227,-3.5245,-3.5261,-3.5319,-3.5342,-3.5066,-3.5066,-3.5065,-3.5064,0,-3.4885,-3.4936,-3.4995,-3.5019,-3.5044,-3.5112,-3.5082,-3.5114,-3.5083,-3.5071,-3.5151,-3.5153,-3.5191,-3.5212,-3.5183,-3.531,-3.5285,-3.5234,-3.5155,-3.5293,-3.5348,-3.5369,-3.5077,-3.5074,-3.5072,-3.507,0,0,-3.5112,-3.5113,-3.5136,-3.5147,-3.5155,-3.5194,-3.526,-3.5296,-3.5325,-3.5343,-3.5399,-3.5462,-3.5416,-3.5434,-3.5406,-3.5458,-3.5593,-3.5401,-3.5401,-3.5439,-3.5736,-3.5776,-3.5802,-3.5563,-3.5567,-3.557,-3.5736,0,-3.5269,-3.5381,-3.5346,-3.5459,-3.5507,-3.5443,-3.5501,-3.5513,-3.5504,-3.5544,-3.5534,-3.558,-3.5514,-3.5525,-3.5574,-3.5566,-3.5652,-3.5553,-3.5617,-3.562,-3.5618,-3.583,-3.5872,-3.6028,-3.5756,-3.576,-3.5762,0,-3.5467,-3.5494,-3.5612,-3.5614,-3.5633,-3.5685,-3.5717,-3.5756,-3.5769,-3.5759,-3.578,-3.5742,-3.5809,-3.5728,-3.5821,-3.5755,-3.5778,-3.5779,-3.5784,-3.579,-3.5701,-3.5845,-3.6076,-3.6101,-3.5795,-3.5792,-3.579,0,-3.5624,-3.569,-3.5769,-3.578,-3.5784,-3.5823,-3.5827,-3.5836,-3.586,-3.5888,-3.5905,-3.594,-3.5961,-3.599,-3.5963,-3.5906,-3.6062,-3.5978,-3.6057,-3.6058,-3.6094,-3.6093,-3.6336,-3.6106,-3.6106,-3.6105,-3.6105,0,-3.5805,-3.588,-3.584,-3.589,-3.5973,-3.5933,-3.6017,-3.6014,-3.6023,-3.6072,-3.6018,-3.6066,-3.6026,-3.6071,-3.6051,-3.6133,-3.6142,-3.6137,-3.6131,-3.6143,-3.6144,-3.616,-3.6149,-3.6112,-3.611,-3.6109,-3.6108,0,-3.5994,-3.597,-3.6053,-3.605,-3.6052,-3.6114,-3.6112,-3.6159,-3.6145,-3.6208,-3.6221,-3.6201,-3.6251,-3.6227,-3.6279,-3.6265,-3.6372,-3.635,-3.6368,-3.6363,-3.6445,-3.6438,-3.6708,-3.6743,-3.6489,-3.6491,-3.6493,0,-3.6112,-3.6169,-3.6172,-3.6201,-3.6208,-3.6255,-3.628,-3.6243,-3.6272,-3.6293,-3.6338,-3.6383,-3.6418,-3.6502,-3.6493,-3.6533,-3.6514,-3.6606,-3.652,-3.6531,-3.6519,-3.6517,-3.6524,-3.6624,-3.6627,-3.6629,-3.6631,0,-3.6324,-3.631,-3.6348,-3.6383,-3.6414,-3.6439,-3.646,-3.6488,-3.6452,-3.6487,-3.6538,-3.6564,-3.6618,-3.6665,-3.6701,-3.6706,-3.6665,-3.6658,-3.6679,-3.6693,-3.6702,-3.6701,-3.6417,-3.6652,-3.665,-3.6649,-3.6647,-3.6647,-3.6483,-3.6532,-3.6542,-3.6587,-3.6599,-3.6621,-3.6665,-3.6658,-3.6699,-3.6739,-3.6715,-3.6775,-3.679,-3.6833,-3.6845,-3.6893,-3.6857,-3.6886,-3.6894,-3.6903,-3.6915,-3.6692,-3.6899,-3.6898,-3.6898,-3.6897,-3.6897,0,-3.6695,-3.6699,-3.674,-3.6772,-3.6808,-3.6763,-3.6785,-3.6819,-3.6872,-3.6888,-3.6924,-3.6983,-3.7029,-3.7024,-3.7067,-3.7106,-3.7088,-3.7119,-3.7117,-3.712,-3.6944,-3.6922,-3.7133,-3.7133,-3.7133,-3.7133,-3.7133,-3.7133,-3.681,-3.689,-3.6878,-3.6965,-3.6968,-3.7026,-3.7042,-3.7063,-3.7076,-3.7145,-3.7182,-3.7179,-3.7188,-3.7231,-3.7272,-3.7269,-3.7289,-3.7327,-3.7319,-3.7155,-3.7131,-3.7109,-3.7089,-3.7331,-3.7332,-3.749,-3.7492,-3.7493]},{"header":{"parameterUnit":"m.s-1","parameterCategory":1,"la1":30.2991,"la2":30.254,"lo1":-89.0895,"lo2":-89.0444,"dy":0.0017,"dx":0.0017,"nx":28,"ny":28,"refTime":"2024-10-10T09:00:00:Z","depth":0,"parameterNumber":3,"parameterNumberName":"V-component_of_WINDS"},"data":[0,0,0,0,0,0,0,0,0,0,0,0,0,0,0,0,0,0,0,0,0,0,0,0,0,0,0,0,0,0,0,0,0,0,0,0,0,0,0,0,0,0,0,0,0,0,0,0,0,0,0,0,0,0,0,0,0,0,-0.2615,-0.2615,0,-0.2667,-0.2667,-0.2668,-0.2663,-0.2662,-0.2661,-0.266,-0.2717,-0.2719,-0.2722,0,0,0,0,0,0,0,0,0,0,0,0,0,-0.2514,-0.2516,-0.2615,-0.2615,-0.2616,-0.2667,-0.2667,-0.2668,-0.2663,-0.2662,-0.2661,-0.266,-0.2716,-0.2719,-0.2722,0,0,0,0,0,0,0,0,0,0,0,0,0,-0.2561,-0.2517,-0.2615,-0.262,-0.262,-0.2667,-0.2667,-0.2668,-0.2663,-0.2662,-0.2661,-0.266,-0.2716,-0.2719,-0.2722,-0.2768,0,0,-0.2733,-0.2734,0,0,0,0,0,0,0,0,-0.2559,-0.2565,-0.2618,-0.2619,-0.262,-0.2657,-0.2653,-0.2702,-0.2664,-0.2647,-0.266,-0.2659,-0.2698,-0.2703,-0.2716,-0.2771,-0.2773,-0.2733,-0.2735,-0.2737,-0.2738,0,0,0,0,0,0,0,-0.2555,-0.2563,-0.2635,-0.2619,-0.262,-0.262,-0.2626,-0.2662,-0.2679,-0.2648,-0.2648,-0.2654,-0.2699,-0.2712,-0.2717,-0.2774,-0.2733,-0.2736,-0.2738,-0.2739,-0.287,-0.2872,0,0,0,0,0,0,-0.2551,-0.256,-0.2634,-0.2637,-0.2586,-0.2623,-0.2629,-0.2647,-0.2679,-0.2682,-0.2655,-0.2654,-0.2707,-0.2713,-0.2719,-0.2776,-0.2737,-0.274,-0.2742,-0.2869,-0.2871,-0.2872,0,0,0,0,0,0,-0.2548,-0.2557,-0.2632,-0.2599,-0.2608,-0.2626,-0.2646,-0.2648,-0.2662,-0.2684,-0.2687,-0.2666,-0.2706,-0.2714,-0.2756,-0.2778,-0.2741,-0.2744,-0.2867,-0.287,-0.2872,-0.289,0,0,0,0,0,0,-0.2546,-0.2556,-0.2573,-0.2599,-0.261,-0.2667,-0.2647,-0.265,-0.2667,-0.2666,-0.2695,-0.2698,-0.2706,-0.2751,-0.2759,-0.2782,-0.2747,-0.2866,-0.2868,-0.2871,-0.2888,-0.2892,-0.2897,0,0,0,0,0,-0.2542,-0.2577,-0.2574,-0.2583,-0.2631,-0.2668,-0.2674,-0.2682,-0.2669,-0.2687,-0.2701,-0.2697,-0.2774,-0.2755,-0.2765,-0.2789,-0.2864,-0.2868,-0.2871,-0.2885,-0.2892,-0.2897,0,0,0,0,0,0,-0.2555,-0.258,-0.2578,-0.2621,-0.2643,-0.2667,-0.269,-0.2688,-0.2714,-0.2712,-0.272,-0.2727,-0.277,-0.2783,-0.2762,-0.2835,-0.2817,-0.2823,-0.2825,-0.2831,-0.2836,-0.2833,-0.275,0,0,0,0,0,-0.2562,-0.2589,-0.261,-0.2647,-0.2658,-0.2672,-0.2688,-0.2692,-0.2715,-0.2724,-0.2741,-0.2764,-0.2793,-0.2813,-0.2841,-0.2888,-0.2896,-0.291,-0.2914,-0.2918,-0.2923,-0.2951,-0.2958,-0.2883,-0.2883,-0.2883,0,0,-0.2579,-0.2596,-0.2613,-0.265,-0.2667,-0.2696,-0.268,-0.2711,-0.2733,-0.2729,-0.277,-0.2783,-0.2809,-0.2855,-0.2876,-0.2867,-0.2945,-0.2922,-0.2925,-0.2928,-0.2955,-0.2963,-0.2969,-0.2885,-0.2885,-0.2884,0,0,-0.2625,-0.2639,-0.2672,-0.2689,-0.2714,-0.2723,-0.2731,-0.2756,-0.2765,-0.2805,-0.2803,-0.283,-0.2879,-0.2899,-0.2915,-0.2968,-0.2966,-0.2976,-0.3002,-0.3029,-0.3035,-0.304,-0.3061,-0.3068,-0.2981,-0.2981,-0.2981,0,-0.2643,-0.2685,-0.269,-0.2722,-0.2739,-0.2735,-0.2769,-0.2786,-0.2819,-0.2832,-0.2821,-0.2884,-0.2902,-0.2952,-0.2965,-0.2978,-0.2988,-0.2974,-0.3033,-0.3039,-0.3044,-0.3064,-0.3071,-0.2982,-0.2982,-0.2982,-0.2982,0,-0.2707,-0.2737,-0.276,-0.2792,-0.2812,-0.2844,-0.2855,-0.2875,-0.2876,-0.2887,-0.2929,-0.2949,-0.2982,-0.2994,-0.2996,-0.3045,-0.3039,-0.3031,-0.3014,-0.3052,-0.3071,-0.3079,-0.2984,-0.2984,-0.2983,-0.2983,0,0,-0.2764,-0.2797,-0.2806,-0.2821,-0.2848,-0.2872,-0.2904,-0.2935,-0.2953,-0.2975,-0.3005,-0.3047,-0.3039,-0.3058,-0.3062,-0.3085,-0.3128,-0.3074,-0.3075,-0.3085,-0.3186,-0.3194,-0.3203,-0.3126,-0.3127,-0.3128,-0.3184,0,-0.2814,-0.2872,-0.2877,-0.2929,-0.2958,-0.2954,-0.2983,-0.3004,-0.3014,-0.3041,-0.3052,-0.3083,-0.3069,-0.3081,-0.3103,-0.3118,-0.3149,-0.3113,-0.3155,-0.3157,-0.3152,-0.3212,-0.3221,-0.3273,-0.3192,-0.3193,-0.3194,0,-0.2881,-0.2905,-0.296,-0.2984,-0.2996,-0.3022,-0.3051,-0.3076,-0.3099,-0.3105,-0.3126,-0.3127,-0.3162,-0.3141,-0.3191,-0.3167,-0.3184,-0.3194,-0.3196,-0.3203,-0.318,-0.3223,-0.3289,-0.3298,-0.3205,-0.3204,-0.3203,0,-0.292,-0.2966,-0.3005,-0.3018,-0.3046,-0.3064,-0.3077,-0.3099,-0.3118,-0.3143,-0.3156,-0.3185,-0.3202,-0.3225,-0.3235,-0.3218,-0.3285,-0.3265,-0.3293,-0.3293,-0.331,-0.3309,-0.3383,-0.3316,-0.3316,-0.3316,-0.3316,0,-0.2977,-0.3012,-0.3023,-0.3048,-0.3087,-0.3092,-0.3131,-0.3143,-0.3162,-0.319,-0.3188,-0.3214,-0.3224,-0.3252,-0.326,-0.3301,-0.3308,-0.3315,-0.3318,-0.3317,-0.3317,-0.3331,-0.3328,-0.3318,-0.3318,-0.3317,-0.3317,0,-0.3028,-0.3037,-0.308,-0.3103,-0.3109,-0.3137,-0.3157,-0.3182,-0.3191,-0.3226,-0.3235,-0.325,-0.3283,-0.3294,-0.3334,-0.3339,-0.3389,-0.3386,-0.3381,-0.3382,-0.3411,-0.3409,-0.3498,-0.3511,-0.3434,-0.3434,-0.3435,0,-0.3066,-0.3092,-0.3117,-0.3135,-0.3148,-0.3177,-0.3196,-0.3202,-0.3222,-0.325,-0.3272,-0.3304,-0.3331,-0.3384,-0.34,-0.3431,-0.3431,-0.346,-0.3436,-0.3435,-0.3435,-0.3434,-0.3438,-0.3465,-0.3466,-0.3467,-0.3467,0,-0.3132,-0.3134,-0.3161,-0.3189,-0.3211,-0.3234,-0.3256,-0.3271,-0.328,-0.3303,-0.3336,-0.3357,-0.3397,-0.3431,-0.3462,-0.3476,-0.3475,-0.3474,-0.3483,-0.3485,-0.3481,-0.3486,-0.3396,-0.3473,-0.3472,-0.3472,-0.3472,-0.3472,-0.3179,-0.3203,-0.3224,-0.3254,-0.3271,-0.3291,-0.3316,-0.3327,-0.3355,-0.3388,-0.339,-0.3427,-0.345,-0.3492,-0.3508,-0.3538,-0.353,-0.3542,-0.3545,-0.3549,-0.3552,-0.3474,-0.3543,-0.3543,-0.3543,-0.3543,-0.3542,0,-0.3247,-0.326,-0.3287,-0.3318,-0.3342,-0.3335,-0.3359,-0.338,-0.3412,-0.3433,-0.3459,-0.3498,-0.353,-0.3547,-0.358,-0.36,-0.36,-0.3609,-0.3609,-0.3613,-0.3556,-0.3547,-0.3608,-0.3608,-0.3608,-0.3608,-0.3608,-0.3608,-0.3285,-0.3326,-0.3331,-0.338,-0.3394,-0.3429,-0.3444,-0.3463,-0.348,-0.3523,-0.355,-0.356,-0.3581,-0.3614,-0.3644,-0.3648,-0.3662,-0.3671,-0.3675,-0.3623,-0.3616,-0.361,-0.3601,-0.3673,-0.3673,-0.373,-0.373,-0.3731]}]]